[[{"header":{"parameterUnit":"m.s-1","parameterCategory":1,"la1":30.2991,"la2":30.254,"lo1":-89.0895,"lo2":-89.0444,"dy":0.0017,"dx":0.0017,"nx":28,"ny":28,"refTime":"2025-01-05T03:00:00:Z","depth":0,"parameterNumber":2,"parameterNumberName":"U-component_of_WINDS"},"data":[0,0,0,0,0,0,0,0,0,0,0,0,0,0,0,0,0,0,0,0,0,0,0,0,0,0,0,0,0,0,0,0,0,0,0,0,0,0,0,0,0,0,0,0,0,0,0,0,0,0,0,0,0,0,0,0,0,0,4.6325,4.6325,0,4.6362,4.6363,4.6363,4.6309,4.6307,4.6305,4.6304,4.6341,4.6343,4.6346,0,0,0,0,0,0,0,0,0,0,0,0,0,4.6208,4.6211,4.6325,4.6325,4.6326,4.6362,4.6363,4.6363,4.6309,4.6307,4.6305,4.6303,4.634,4.6343,4.6346,0,0,0,0,0,0,0,0,0,0,0,0,0,4.6254,4.6212,4.6325,4.6304,4.6302,4.6362,4.6363,4.6363,4.631,4.6307,4.6304,4.6302,4.6339,4.6343,4.6347,4.6429,0,0,4.6359,4.6361,0,0,0,0,0,0,0,0,4.6251,4.6258,4.6306,4.6305,4.6304,4.6328,4.6335,4.6385,4.6311,4.6307,4.6303,4.63,4.6339,4.6343,4.6356,4.6431,4.6433,4.636,4.6362,4.6364,4.6365,0,0,0,0,0,0,0,4.6248,4.6256,4.634,4.6307,4.6305,4.6292,4.6296,4.6344,4.6338,4.6307,4.6303,4.6308,4.6337,4.6352,4.6356,4.6433,4.636,4.6363,4.6366,4.6368,4.6581,4.6584,0,0,0,0,0,0,4.6248,4.6254,4.6338,4.6341,4.627,4.6297,4.63,4.6323,4.6338,4.6337,4.6311,4.6306,4.6346,4.6352,4.6357,4.6457,4.6364,4.6368,4.637,4.6577,4.6581,4.6585,0,0,0,0,0,0,4.6245,4.6256,4.6337,4.6296,4.6306,4.6302,4.6328,4.6325,4.634,4.634,4.6339,4.6327,4.6344,4.6352,4.6412,4.6457,4.637,4.6374,4.6574,4.6579,4.6583,4.6654,0,0,0,0,0,0,4.6242,4.6255,4.6286,4.6297,4.6308,4.6391,4.633,4.6328,4.6347,4.6341,4.6355,4.6355,4.6343,4.6407,4.6417,4.6461,4.6377,4.657,4.6576,4.6581,4.6648,4.6661,4.6672,0,0,0,0,0,4.6238,4.6304,4.6288,4.6298,4.6347,4.6394,4.64,4.6385,4.6351,4.6382,4.6383,4.6354,4.6451,4.6413,4.6424,4.6471,4.6567,4.6574,4.6581,4.6643,4.6659,4.6672,0,0,0,0,0,0,4.6296,4.6305,4.6287,4.6358,4.6376,4.6385,4.6423,4.6402,4.6429,4.6422,4.6402,4.6406,4.6472,4.6477,4.6435,4.6552,4.6503,4.6513,4.6546,4.6561,4.6573,4.657,4.638,0,0,0,0,0,4.6318,4.6356,4.6361,4.6423,4.6433,4.6427,4.6447,4.6434,4.6452,4.6459,4.6464,4.6482,4.6516,4.6539,4.657,4.6649,4.6652,4.6686,4.6699,4.6708,4.6717,4.6761,4.6777,4.6608,4.6608,4.6608,0,0,4.6362,4.6371,4.6396,4.6435,4.6447,4.6487,4.6434,4.6477,4.6507,4.6465,4.6523,4.6528,4.6547,4.6618,4.6649,4.6624,4.6765,4.6718,4.6725,4.6729,4.677,4.6786,4.68,4.6613,4.6612,4.6611,0,0,4.6463,4.6473,4.6527,4.6541,4.6561,4.6557,4.657,4.6583,4.6585,4.6643,4.6613,4.6649,4.6708,4.6723,4.6739,4.6849,4.6824,4.686,4.6923,4.6966,4.6979,4.6991,4.7031,4.7046,4.6868,4.6869,4.6869,0,4.6515,4.6574,4.6558,4.6605,4.6624,4.6589,4.6644,4.6658,4.6687,4.6701,4.6674,4.6749,4.6759,4.6834,4.6861,4.6875,4.689,4.6858,4.6978,4.699,4.7001,4.7039,4.7055,4.6873,4.6872,4.6872,4.6871,0,4.6638,4.668,4.6721,4.6751,4.6775,4.6826,4.6818,4.6844,4.683,4.683,4.6891,4.6902,4.6937,4.6953,4.6939,4.7027,4.7011,4.6982,4.6931,4.7021,4.7057,4.7072,4.6879,4.6877,4.6876,4.6875,0,0,4.6774,4.6797,4.6813,4.6827,4.6848,4.688,4.693,4.6965,4.6988,4.701,4.7052,4.7105,4.7078,4.7096,4.7084,4.7122,4.7211,4.7087,4.7087,4.7111,4.731,4.7333,4.735,4.7194,4.7197,4.7199,4.7309,0,4.6876,4.6963,4.6952,4.7036,4.7075,4.7044,4.7088,4.7106,4.7107,4.7141,4.7143,4.7181,4.7142,4.7153,4.7189,4.7192,4.725,4.7184,4.7234,4.7236,4.7231,4.7368,4.7392,4.7494,4.7322,4.7325,4.7326,0,4.7006,4.7034,4.7122,4.7139,4.7155,4.7195,4.7227,4.726,4.728,4.7279,4.73,4.7282,4.7334,4.7284,4.7355,4.731,4.733,4.7335,4.7339,4.7343,4.7287,4.7377,4.7526,4.7542,4.7348,4.7346,4.7345,0,4.7098,4.7158,4.7219,4.7232,4.7253,4.7282,4.7292,4.731,4.7332,4.736,4.7375,4.7409,4.7427,4.7454,4.7446,4.741,4.752,4.7469,4.7521,4.7522,4.7545,4.7544,4.7701,4.7558,4.7558,4.7557,4.7557,0,4.7213,4.7269,4.7262,4.7299,4.7361,4.7348,4.741,4.7416,4.7432,4.7471,4.7446,4.7483,4.7471,4.7507,4.7501,4.7563,4.7571,4.7572,4.757,4.7574,4.7574,4.7587,4.758,4.7561,4.7561,4.756,4.7559,0,4.7327,4.7324,4.7389,4.7404,4.7409,4.7455,4.7468,4.7504,4.7504,4.7554,4.7565,4.7566,4.7608,4.7603,4.765,4.7646,4.7723,4.7711,4.7716,4.7714,4.7767,4.7762,4.7938,4.7961,4.7802,4.7804,4.7805,0,4.74,4.7442,4.7463,4.7488,4.75,4.754,4.7564,4.7553,4.7578,4.7606,4.7639,4.768,4.7711,4.7781,4.7785,4.7822,4.7812,4.7871,4.7817,4.7821,4.7814,4.7812,4.7817,4.7882,4.7883,4.7885,4.7886,0,4.7532,4.7529,4.7564,4.7599,4.7628,4.7655,4.7679,4.7701,4.7693,4.7723,4.7767,4.7791,4.7841,4.7881,4.7916,4.7927,4.7906,4.7903,4.7918,4.7923,4.7924,4.7925,4.7746,4.7899,4.7898,4.7897,4.7896,4.7896,4.7628,4.7665,4.7686,4.7726,4.7744,4.7768,4.7804,4.781,4.7846,4.7885,4.7877,4.7926,4.7948,4.7993,4.8008,4.8047,4.8025,4.8045,4.8051,4.8056,4.8063,4.7918,4.8053,4.8052,4.8052,4.8052,4.8051,0,4.7759,4.7772,4.7809,4.7845,4.7877,4.7856,4.7882,4.7911,4.7955,4.7977,4.8009,4.8061,4.8101,4.811,4.8149,4.8178,4.817,4.8189,4.8187,4.819,4.8079,4.8063,4.8195,4.8195,4.8195,4.8195,4.8195,4.8195,4.7831,4.7894,4.7894,4.7965,4.7977,4.8026,4.8044,4.8066,4.8084,4.8143,4.8176,4.8182,4.82,4.824,4.8277,4.8278,4.8294,4.8318,4.8316,4.8212,4.8197,4.8184,4.8169,4.8321,4.8321,4.8423,4.8424,4.8425]},{"header":{"parameterUnit":"m.s-1","parameterCategory":1,"la1":30.2991,"la2":30.254,"lo1":-89.0895,"lo2":-89.0444,"dy":0.0017,"dx":0.0017,"nx":28,"ny":28,"refTime":"2025-01-05T03:00:00:Z","depth":0,"parameterNumber":3,"parameterNumberName":"V-component_of_WINDS"},"data":[0,0,0,0,0,0,0,0,0,0,0,0,0,0,0,0,0,0,0,0,0,0,0,0,0,0,0,0,0,0,0,0,0,0,0,0,0,0,0,0,0,0,0,0,0,0,0,0,0,0,0,0,0,0,0,0,0,0,-7.4432,-7.4434,0,-7.4602,-7.4604,-7.4606,-7.461,-7.4608,-7.4606,-7.4604,-7.4773,-7.4779,-7.4786,0,0,0,0,0,0,0,0,0,0,0,0,0,-7.4107,-7.4113,-7.4432,-7.4434,-7.4436,-7.4602,-7.4604,-7.4606,-7.461,-7.4608,-7.4605,-7.4603,-7.4771,-7.4779,-7.4786,0,0,0,0,0,0,0,0,0,0,0,0,0,-7.4259,-7.4115,-7.4431,-7.4458,-7.4462,-7.4601,-7.4604,-7.4607,-7.4611,-7.4608,-7.4605,-7.4602,-7.4768,-7.4778,-7.4787,-7.491,0,0,-7.4817,-7.4821,0,0,0,0,0,0,0,0,-7.4251,-7.4271,-7.4452,-7.4456,-7.4461,-7.4582,-7.4552,-7.4708,-7.4612,-7.4554,-7.4604,-7.46,-7.4712,-7.4726,-7.4764,-7.4918,-7.4925,-7.4818,-7.4824,-7.4828,-7.4831,0,0,0,0,0,0,0,-7.424,-7.4264,-7.4499,-7.4455,-7.446,-7.4461,-7.4479,-7.4581,-7.4648,-7.4559,-7.456,-7.458,-7.4713,-7.4755,-7.4768,-7.4927,-7.4818,-7.4826,-7.4832,-7.4836,-7.5192,-7.5196,0,0,0,0,0,0,-7.4225,-7.4255,-7.4494,-7.4504,-7.4346,-7.4469,-7.4489,-7.4546,-7.4647,-7.466,-7.4583,-7.458,-7.474,-7.4757,-7.4774,-7.4926,-7.4828,-7.4837,-7.4842,-7.5188,-7.5193,-7.5197,0,0,0,0,0,0,-7.4218,-7.4246,-7.4487,-7.438,-7.4411,-7.4478,-7.4542,-7.4551,-7.4593,-7.4665,-7.4677,-7.4613,-7.4738,-7.4761,-7.4877,-7.4932,-7.4841,-7.485,-7.5184,-7.519,-7.5195,-7.5229,0,0,0,0,0,0,-7.4209,-7.4244,-7.4291,-7.4381,-7.4416,-7.4587,-7.4545,-7.4557,-7.461,-7.4608,-7.4697,-7.4708,-7.4738,-7.4863,-7.4887,-7.4944,-7.4858,-7.5179,-7.5187,-7.5193,-7.5223,-7.5235,-7.5245,0,0,0,0,0,-7.4197,-7.4292,-7.4294,-7.4322,-7.4478,-7.4591,-7.4611,-7.4644,-7.4614,-7.4663,-7.471,-7.4706,-7.4922,-7.4874,-7.4902,-7.4962,-7.5176,-7.5185,-7.5193,-7.5218,-7.5233,-7.5245,0,0,0,0,0,0,-7.4205,-7.4305,-7.4307,-7.4435,-7.4505,-7.4591,-7.4653,-7.4657,-7.4735,-7.473,-7.4766,-7.4786,-7.4902,-7.4944,-7.4889,-7.5087,-7.5045,-7.5059,-7.5056,-7.507,-7.5081,-7.5068,-7.4866,0,0,0,0,0,-7.4222,-7.4307,-7.4389,-7.4493,-7.4529,-7.4585,-7.4635,-7.4655,-7.4728,-7.4757,-7.4812,-7.4882,-7.4966,-7.502,-7.5101,-7.5229,-7.5249,-7.5285,-7.5295,-7.5304,-7.5316,-7.5388,-7.5405,-7.5224,-7.5224,-7.5224,0,0,-7.4257,-7.4322,-7.4373,-7.4497,-7.4553,-7.4639,-7.4609,-7.4701,-7.4766,-7.477,-7.4884,-7.4928,-7.5008,-7.5131,-7.5188,-7.5169,-7.537,-7.5315,-7.5321,-7.5328,-7.5398,-7.5416,-7.5431,-7.5229,-7.5228,-7.5228,0,0,-7.4366,-7.4423,-7.4518,-7.4576,-7.4663,-7.47,-7.4723,-7.481,-7.4839,-7.4955,-7.4961,-7.5037,-7.518,-7.5238,-7.5286,-7.542,-7.5419,-7.5445,-7.5501,-7.5572,-7.5586,-7.5599,-7.5648,-7.5665,-7.5456,-7.5456,-7.5457,0,-7.4398,-7.4529,-7.4565,-7.4659,-7.4713,-7.4724,-7.482,-7.4874,-7.4982,-7.5019,-7.4997,-7.5179,-7.5234,-7.5372,-7.5405,-7.5443,-7.547,-7.5435,-7.5582,-7.5595,-7.5607,-7.5654,-7.5672,-7.5459,-7.5459,-7.5459,-7.5458,0,-7.4566,-7.4657,-7.4723,-7.483,-7.4892,-7.4985,-7.5035,-7.5094,-7.5109,-7.5148,-7.5266,-7.5333,-7.5429,-7.5463,-7.5477,-7.5604,-7.559,-7.5574,-7.5533,-7.5627,-7.5671,-7.5689,-7.5463,-7.5462,-7.5461,-7.546,0,0,-7.4682,-7.481,-7.4834,-7.4883,-7.4981,-7.5052,-7.5147,-7.5243,-7.5292,-7.5367,-7.5447,-7.557,-7.5558,-7.5612,-7.5633,-7.5695,-7.5798,-7.5672,-7.5675,-7.5694,-7.5943,-7.5955,-7.5975,-7.5799,-7.5803,-7.5805,-7.5937,0,-7.4802,-7.4973,-7.5009,-7.5156,-7.5242,-7.5254,-7.5337,-7.5406,-7.5446,-7.5523,-7.5567,-7.5654,-7.563,-7.5663,-7.5725,-7.5773,-7.5849,-7.5764,-7.5874,-7.5877,-7.5854,-7.5998,-7.601,-7.6131,-7.5954,-7.5957,-7.5959,0,-7.4964,-7.5046,-7.5202,-7.5291,-7.5328,-7.5402,-7.5494,-7.5568,-7.5646,-7.5671,-7.5734,-7.5749,-7.5848,-7.5803,-7.594,-7.5881,-7.5929,-7.5959,-7.5965,-7.5976,-7.5924,-7.6014,-7.617,-7.6188,-7.5987,-7.5985,-7.5983,0,-7.5035,-7.5183,-7.5297,-7.5339,-7.5445,-7.5497,-7.5543,-7.5619,-7.5675,-7.5755,-7.5792,-7.5881,-7.593,-7.5999,-7.6038,-7.6001,-7.6173,-7.613,-7.6196,-7.6195,-7.6231,-7.6228,-7.6397,-7.6261,-7.626,-7.626,-7.626,0,-7.5165,-7.526,-7.5331,-7.54,-7.5508,-7.5549,-7.5654,-7.5699,-7.5767,-7.5846,-7.5861,-7.5934,-7.5982,-7.6061,-7.6092,-7.6202,-7.6223,-7.6246,-7.6253,-7.6245,-7.6242,-7.6276,-7.6269,-7.6265,-7.6264,-7.6263,-7.6262,0,-7.5262,-7.5313,-7.5438,-7.5529,-7.5554,-7.563,-7.5707,-7.5775,-7.5817,-7.5916,-7.5941,-7.6006,-7.6101,-7.6147,-7.6264,-7.6285,-7.6409,-7.641,-7.6383,-7.6386,-7.645,-7.6443,-7.6647,-7.6676,-7.6519,-7.6521,-7.6522,0,-7.5342,-7.5416,-7.5516,-7.5571,-7.562,-7.5707,-7.5766,-7.5809,-7.5869,-7.5965,-7.6022,-7.6118,-7.6198,-7.6349,-7.6405,-7.6495,-7.6499,-7.6564,-7.6512,-7.6502,-7.6501,-7.6496,-7.6504,-7.6573,-7.6574,-7.6576,-7.6577,0,-7.5478,-7.5501,-7.5585,-7.5679,-7.5749,-7.5825,-7.5899,-7.5942,-7.5998,-7.6064,-7.6163,-7.6225,-7.6346,-7.6442,-7.6536,-7.6583,-7.6589,-7.6593,-7.6613,-7.6605,-7.6587,-7.6599,-7.6409,-7.6588,-7.6587,-7.6586,-7.6585,-7.6585,-7.557,-7.5637,-7.572,-7.5814,-7.5875,-7.5944,-7.6014,-7.6065,-7.6149,-7.6252,-7.6272,-7.6377,-7.6455,-7.6584,-7.6634,-7.6716,-7.6701,-7.673,-7.6737,-7.6744,-7.6748,-7.6574,-7.6733,-7.6733,-7.6732,-7.6732,-7.6732,0,-7.5708,-7.5763,-7.5849,-7.5954,-7.6028,-7.603,-7.6113,-7.6175,-7.6268,-7.6341,-7.642,-7.6534,-7.6627,-7.6692,-7.6787,-7.684,-7.6846,-7.6863,-7.686,-7.6871,-7.6755,-7.6729,-7.6858,-7.6858,-7.6858,-7.6858,-7.6857,-7.6857,-7.5789,-7.5904,-7.5936,-7.6082,-7.6135,-7.624,-7.6287,-7.6352,-7.6411,-7.6539,-7.6617,-7.666,-7.673,-7.683,-7.6916,-7.6933,-7.6967,-7.6985,-7.7002,-7.6892,-7.6879,-7.6866,-7.6842,-7.6992,-7.6992,-7.7111,-7.7112,-7.7113]}]]